2022/02/02 23:25:30+0000,-42.96,-32.26,-28.02,-40.08,-32.27,-45.53
2022/02/02 23:26:22+0000,-42.47,-32.29,-27.51,-35.38,-31.49,-48.51
2022/02/02 23:27:14+0000,-42.04,-31.56,-25.36,-35.30,-34.49,-46.82
2022/02/02 23:28:06+0000,-43.17,-32.59,-27.59,-41.01,-32.18,-48.42
2022/02/02 23:28:58+0000,-43.23,-26.70,-34.15,-30.45,-33.15,-48.91
2022/02/02 23:29:52+0000,-43.33,-25.14,-27.91,-37.66,-35.52,-48.83
2022/02/02 23:30:44+0000,-43.03,-31.19,-24.63,-36.75,-35.15,-49.26
2022/02/02 23:31:46+0000,-43.31,-31.09,-28.80,-38.25,-34.44,-48.11
2022/02/02 23:32:38+0000,-42.58,-29.75,-26.35,-39.60,-34.16,-48.15
2022/02/02 23:33:30+0000,-43.04,-31.05,-24.98,-34.32,-32.87,-49.01
2022/02/02 23:34:22+0000,-43.22,-30.20,-21.88,-32.37,-34.87,-49.31
2022/02/02 23:35:14+0000,-43.21,-30.52,-20.69,-34.15,-32.74,-48.57
2022/02/02 23:36:06+0000,-42.91,-32.62,-25.61,-39.53,-35.48,-48.73
2022/02/02 23:36:58+0000,-43.54,-30.14,-33.41,-35.53,-39.06,-33.74
2022/02/02 23:37:50+0000,-43.44,-32.21,-27.82,-35.26,-29.63,-49.99
2022/02/02 23:38:42+0000,-42.84,-30.62,-35.37,-35.00,-26.88,-48.81
2022/02/02 23:39:34+0000,-42.04,-32.97,-25.11,-35.32,-39.33,-48.80
2022/02/02 23:40:28+0000,-42.22,-24.58,-25.09,-34.91,-36.46,-49.12
2022/02/02 23:41:30+0000,-42.69,-21.60,-27.71,-38.17,-35.32,-48.93
2022/02/02 23:42:22+0000,-43.27,-23.68,-30.11,-36.01,-31.55,-49.24
2022/02/02 23:43:14+0000,-42.84,-31.69,-29.31,-37.34,-34.59,-49.36
2022/02/02 23:44:06+0000,-44.99,-31.32,-30.85,-40.64,-32.94,-46.39
2022/02/02 23:44:58+0000,-43.96,-25.83,-29.54,-35.05,-35.77,-47.17
2022/02/02 23:45:50+0000,-45.13,-32.85,-27.91,-41.01,-35.68,-46.03
2022/02/02 23:46:42+0000,-44.91,-29.76,-34.86,-32.02,-32.62,-47.10
2022/02/02 23:47:34+0000,-43.22,-32.17,-25.93,-38.45,-32.28,-46.86
2022/02/02 23:48:27+0000,-43.34,-26.60,-34.80,-38.74,-34.99,-49.41
2022/02/02 23:49:19+0000,-43.87,-28.73,-26.25,-38.25,-30.73,-48.65
2022/02/02 23:50:13+0000,-42.35,-29.42,-34.03,-33.25,-33.24,-47.43
2022/02/02 23:51:14+0000,-44.01,-29.79,-29.51,-31.82,-34.45,-48.64
2022/02/02 23:52:06+0000,-43.02,-32.45,-27.17,-37.02,-34.68,-49.09
2022/02/02 23:52:58+0000,-43.14,-18.06,-27.75,-36.46,-36.69,-48.67
2022/02/02 23:53:50+0000,-42.61,-32.56,-25.03,-34.07,-33.80,-48.61
2022/02/02 23:54:42+0000,-43.23,-32.16,-32.69,-32.10,-33.04,-48.95
2022/02/02 23:55:34+0000,-41.23,-32.50,-27.60,-37.08,-33.88,-49.39
2022/02/02 23:56:26+0000,-43.62,-26.63,-33.94,-34.23,-37.93,-48.32
2022/02/02 23:57:18+0000,-43.26,-30.41,-25.61,-48.28,-34.61,-48.19
2022/02/02 23:58:10+0000,-43.33,-26.26,-34.04,-34.61,-39.58,-48.07
2022/02/02 23:59:03+0000,-43.18,-20.59,-27.09,-47.62,-33.89,-48.69
2022/02/02 23:59:57+0000,-42.22,-26.18,-34.38,-34.61,-32.69,-48.27
2022/02/03 00:00:53+0000,-43.31,-18.98,-33.67,-34.48,-39.56,-48.49
2022/02/03 00:01:59+0000,-42.70,-23.99,-27.80,-30.64,-36.51,-48.43
2022/02/03 00:02:51+0000,-42.59,-24.47,-29.86,-33.83,-34.15,-48.87
2022/02/03 00:03:44+0000,-42.60,-22.88,-31.77,-36.92,-33.88,-48.13
2022/02/03 00:04:36+0000,-45.21,-31.74,-26.68,-38.76,-33.05,-48.59
2022/02/03 00:05:28+0000,-43.47,-24.20,-26.94,-31.60,-40.24,-46.56
2022/02/03 00:06:20+0000,-42.74,-31.06,-25.96,-32.11,-36.01,-46.01
2022/02/03 00:07:12+0000,-44.07,-25.14,-33.69,-35.14,-30.51,-45.52
2022/02/03 00:08:04+0000,-43.07,-20.60,-25.43,-47.12,-37.85,-46.70
2022/02/03 00:08:56+0000,-42.40,-21.50,-34.81,-31.12,-39.95,-45.63
2022/02/03 00:09:50+0000,-41.90,-31.52,-29.51,-33.83,-33.68,-47.27
2022/02/03 00:10:42+0000,-42.06,-21.16,-33.69,-35.83,-35.80,-48.72
2022/02/03 00:11:44+0000,-43.21,-25.00,-33.02,-34.27,-33.48,-48.42
2022/02/03 00:12:36+0000,-43.01,-29.59,-25.53,-37.15,-39.28,-48.03
2022/02/03 00:13:28+0000,-43.28,-23.67,-29.29,-28.03,-40.72,-48.46
2022/02/03 00:14:20+0000,-43.21,-31.90,-32.37,-30.07,-36.63,-47.59
2022/02/03 00:15:12+0000,-43.50,-27.34,-33.52,-31.33,-33.59,-46.93
2022/02/03 00:16:04+0000,-43.96,-24.78,-25.88,-40.68,-39.23,-47.63
2022/02/03 00:16:56+0000,-43.81,-23.45,-35.23,-30.53,-41.33,-47.47
2022/02/03 00:17:48+0000,-43.38,-25.45,-30.51,-48.23,-34.79,-47.60
2022/02/03 00:18:40+0000,-42.93,-24.17,-28.11,-34.71,-46.33,-46.43
2022/02/03 00:19:32+0000,-43.09,-31.66,-28.39,-40.76,-40.16,-48.17
2022/02/03 00:20:27+0000,-43.77,-23.74,-34.67,-27.13,-41.30,-48.00
2022/02/03 00:21:28+0000,-43.83,-18.39,-28.44,-31.68,-41.86,-47.59
2022/02/03 00:22:20+0000,-43.80,-28.30,-25.34,-32.92,-38.84,-47.39
2022/02/03 00:23:12+0000,-42.63,-25.67,-32.56,-38.48,-41.82,-47.77
2022/02/03 00:24:04+0000,-42.93,-23.71,-24.91,-47.68,-41.61,-47.42
2022/02/03 00:24:56+0000,-42.56,-25.06,-30.93,-33.11,-44.09,-47.30
2022/02/03 00:25:48+0000,-43.13,-26.13,-24.67,-48.77,-40.32,-47.77
2022/02/03 00:26:40+0000,-43.63,-27.23,-28.48,-37.04,-45.24,-47.63
2022/02/03 00:27:32+0000,-42.71,-28.12,-26.76,-47.60,-41.92,-47.02
2022/02/03 00:28:24+0000,-44.86,-27.34,-26.36,-30.59,-46.66,-47.06
2022/02/03 00:29:16+0000,-43.76,-24.76,-27.01,-39.55,-40.82,-45.77
2022/02/03 00:30:11+0000,-44.39,-22.83,-34.94,-38.05,-42.08,-45.68
2022/02/03 00:31:13+0000,-44.02,-25.04,-33.12,-35.76,-42.82,-44.94
2022/02/03 00:32:05+0000,-43.29,-31.49,-24.01,-42.34,-37.77,-45.02
2022/02/03 00:32:57+0000,-43.06,-26.81,-32.96,-33.36,-40.02,-45.85
2022/02/03 00:33:49+0000,-43.08,-24.15,-33.52,-41.49,-40.96,-48.53
2022/02/03 00:34:41+0000,-42.66,-23.29,-32.74,-38.57,-42.25,-48.94
2022/02/03 00:35:33+0000,-42.84,-28.46,-28.12,-48.22,-39.32,-48.26
2022/02/03 00:36:25+0000,-43.25,-30.33,-28.21,-33.88,-45.79,-47.75
2022/02/03 00:37:17+0000,-43.39,-28.99,-30.65,-44.41,-40.85,-47.85
2022/02/03 00:38:09+0000,-43.33,-26.97,-30.62,-39.77,-45.93,-48.08
2022/02/03 00:39:01+0000,-44.01,-25.48,-29.96,-34.91,-41.57,-47.29
2022/02/03 00:39:56+0000,-43.00,-29.53,-35.01,-33.28,-39.75,-47.99
2022/02/03 00:40:48+0000,-41.96,-22.22,-31.85,-46.65,-41.73,-47.13
2022/02/03 00:42:13+0000,-43.10,-27.12,-33.70,-35.84,-44.52,-47.06
2022/02/03 00:43:05+0000,-43.09,-31.18,-30.55,-38.04,-40.92,-47.78
2022/02/03 00:43:57+0000,-44.23,-26.65,-33.65,-32.36,-40.42,-47.38
2022/02/03 00:44:49+0000,-40.53,-24.75,-32.20,-38.71,-40.21,-47.80
2022/02/03 00:45:41+0000,-40.76,-27.12,-33.97,-37.05,-38.82,-48.82
2022/02/03 00:46:33+0000,-41.39,-26.77,-30.84,-48.35,-41.50,-48.92
2022/02/03 00:47:25+0000,-42.50,-27.77,-31.91,-35.95,-46.39,-48.63
2022/02/03 00:48:17+0000,-42.47,-23.54,-32.01,-46.79,-37.00,-49.26
2022/02/03 00:49:09+0000,-43.37,-22.27,-28.26,-38.10,-42.68,-47.54
2022/02/03 00:50:04+0000,-43.07,-26.32,-30.46,-48.51,-39.80,-45.23
2022/02/03 00:51:06+0000,-43.42,-29.48,-31.09,-35.44,-40.78,-45.38
2022/02/03 00:51:58+0000,-44.40,-24.92,-33.06,-27.89,-40.86,-46.63
2022/02/03 00:52:50+0000,-43.55,-31.69,-29.23,-33.69,-33.92,-46.80
2022/02/03 00:53:42+0000,-41.58,-21.38,-33.11,-33.15,-39.21,-47.15
2022/02/03 00:54:34+0000,-41.53,-30.93,-27.31,-37.69,-42.18,-47.78
2022/02/03 00:55:26+0000,-42.65,-21.07,-32.19,-31.52,-41.84,-48.10
2022/02/03 00:56:18+0000,-42.92,-24.45,-28.47,-47.96,-43.65,-47.30
2022/02/03 00:57:10+0000,-41.43,-25.48,-30.14,-41.89,-43.55,-46.95
2022/02/03 00:58:02+0000,-42.64,-24.05,-25.27,-46.43,-39.02,-48.20
2022/02/03 00:58:54+0000,-43.06,-24.12,-28.82,-41.62,-46.13,-47.12
2022/02/03 00:59:49+0000,-42.65,-29.31,-29.10,-46.33,-40.10,-47.13
2022/02/03 01:00:41+0000,-42.66,-22.29,-34.63,-31.21,-41.91,-47.42
2022/02/03 01:01:43+0000,-43.16,-26.53,-34.72,-31.73,-42.39,-48.38
2022/02/03 01:02:35+0000,-43.94,-30.88,-31.29,-34.22,-41.36,-48.55
2022/02/03 01:03:27+0000,-42.90,-24.70,-33.04,-34.59,-42.26,-48.51
2022/02/03 01:04:19+0000,-43.73,-28.12,-31.79,-43.78,-42.33,-47.92
2022/02/03 01:05:11+0000,-43.63,-21.33,-31.38,-35.62,-40.60,-47.25
2022/02/03 01:06:03+0000,-42.86,-19.46,-29.66,-47.86,-42.43,-47.06
2022/02/03 01:06:55+0000,-44.61,-20.54,-33.22,-33.48,-44.81,-47.10
2022/02/03 01:07:47+0000,-45.12,-21.32,-32.20,-46.73,-44.10,-46.82
2022/02/03 01:08:39+0000,-43.98,-22.97,-26.37,-36.02,-45.96,-46.32
2022/02/03 01:09:31+0000,-43.97,-18.36,-29.81,-42.13,-39.34,-46.31
2022/02/03 01:10:26+0000,-43.18,-22.78,-34.75,-34.20,-41.61,-46.88
2022/02/03 01:11:27+0000,-42.37,-22.42,-31.72,-32.78,-40.21,-47.23
2022/02/03 01:12:19+0000,-43.47,-30.53,-29.51,-35.91,-41.76,-48.46
2022/02/03 01:13:11+0000,-43.08,-25.92,-32.44,-37.27,-44.62,-48.40
2022/02/03 01:14:03+0000,-42.82,-19.11,-29.96,-48.51,-41.38,-47.55
2022/02/03 01:14:56+0000,-40.66,-19.54,-27.12,-32.91,-45.11,-48.34
2022/02/03 01:15:48+0000,-42.51,-18.24,-28.52,-48.74,-42.65,-48.10
2022/02/03 01:16:40+0000,-42.60,-19.41,-31.22,-41.70,-46.32,-47.00
2022/02/03 01:17:32+0000,-41.55,-26.63,-29.64,-39.88,-42.96,-47.76
2022/02/03 01:18:24+0000,-42.52,-23.42,-29.20,-38.70,-45.56,-48.42
2022/02/03 01:19:16+0000,-43.43,-19.09,-29.80,-48.19,-43.14,-47.92
2022/02/03 01:20:11+0000,-42.20,-19.85,-34.77,-44.82,-45.57,-48.25
2022/02/03 01:21:12+0000,-41.47,-17.61,-33.09,-41.68,-46.41,-48.58
2022/02/03 01:22:04+0000,-41.80,-22.07,-30.85,-44.85,-43.51,-48.59
2022/02/03 01:22:56+0000,-42.27,-21.35,-33.68,-37.14,-44.20,-47.49
2022/02/03 01:23:48+0000,-42.19,-25.59,-29.84,-48.06,-43.73,-47.70
2022/02/03 01:24:40+0000,-42.82,-22.51,-28.53,-44.33,-45.52,-48.16
2022/02/03 01:25:32+0000,-43.67,-20.17,-28.92,-46.85,-41.49,-47.75
2022/02/03 01:26:24+0000,-43.11,-23.15,-32.01,-39.70,-47.12,-46.30
2022/02/03 01:27:16+0000,-43.54,-24.97,-31.55,-42.50,-39.55,-46.73
2022/02/03 01:28:09+0000,-42.89,-19.44,-32.22,-43.57,-46.39,-46.30
2022/02/03 01:29:01+0000,-43.03,-22.23,-33.51,-44.03,-44.45,-46.81
2022/02/03 01:29:56+0000,-42.61,-21.23,-34.46,-42.01,-43.63,-47.25
2022/02/03 01:30:48+0000,-42.93,-17.73,-32.88,-45.64,-40.32,-46.95
2022/02/03 01:31:49+0000,-43.05,-21.07,-29.69,-45.78,-42.97,-48.08
2022/02/03 01:32:41+0000,-42.36,-21.28,-32.06,-43.44,-42.47,-48.18
2022/02/03 01:33:33+0000,-42.24,-21.91,-29.46,-46.50,-43.67,-48.34
2022/02/03 01:34:25+0000,-43.55,-23.92,-33.10,-40.89,-46.37,-47.91
2022/02/03 01:35:17+0000,-41.83,-19.28,-31.39,-46.13,-45.33,-47.84
2022/02/03 01:36:09+0000,-43.23,-17.45,-32.89,-42.99,-47.11,-47.38
2022/02/03 01:37:01+0000,-39.76,-19.57,-31.32,-39.71,-45.40,-48.36
2022/02/03 01:37:53+0000,-43.82,-19.07,-33.92,-42.68,-46.13,-47.94
2022/02/03 01:38:45+0000,-41.89,-20.14,-32.81,-42.19,-45.51,-48.19
2022/02/03 01:39:38+0000,-43.25,-17.88,-34.71,-44.02,-46.42,-48.31
2022/02/03 01:40:32+0000,-42.15,-19.78,-31.75,-46.58,-44.66,-47.40
2022/02/03 01:41:34+0000,-44.11,-23.66,-29.34,-46.31,-45.34,-47.53
2022/02/03 01:42:26+0000,-43.00,-23.44,-28.69,-41.21,-45.62,-48.47
2022/02/03 01:43:18+0000,-42.30,-21.49,-31.35,-46.21,-45.46,-48.45
2022/02/03 01:44:10+0000,-44.16,-20.63,-26.45,-44.03,-46.14,-48.54
2022/02/03 01:45:02+0000,-42.92,-20.75,-26.69,-46.27,-44.30,-46.58
2022/02/03 01:45:54+0000,-44.15,-21.55,-31.08,-40.70,-45.69,-46.80
2022/02/03 01:46:46+0000,-43.30,-21.24,-31.30,-44.87,-45.02,-46.12
2022/02/03 01:47:38+0000,-41.26,-20.38,-32.87,-44.25,-45.34,-41.90
2022/02/03 01:48:30+0000,-42.04,-22.98,-32.10,-40.66,-45.41,-45.36
2022/02/03 01:49:22+0000,-40.12,-25.82,-33.59,-40.64,-45.95,-45.78
2022/02/03 01:50:17+0000,-41.34,-20.22,-33.55,-43.05,-45.44,-46.95
2022/02/03 01:51:18+0000,-42.48,-20.57,-30.02,-46.33,-46.07,-47.56
2022/02/03 01:52:10+0000,-43.05,-22.24,-31.76,-41.34,-46.78,-47.12
2022/02/03 01:53:02+0000,-42.63,-20.03,-31.36,-47.05,-46.70,-47.00
2022/02/03 01:53:55+0000,-43.56,-21.20,-29.78,-41.98,-46.01,-47.12
2022/02/03 01:54:47+0000,-41.55,-18.37,-34.22,-39.39,-45.51,-48.04
2022/02/03 01:55:39+0000,-43.22,-22.81,-30.10,-38.85,-45.97,-47.11
2022/02/03 01:56:31+0000,-41.41,-22.40,-34.14,-41.96,-45.21,-48.09
2022/02/03 01:57:23+0000,-42.89,-23.96,-34.27,-41.05,-44.81,-48.62
2022/02/03 01:58:15+0000,-43.44,-22.00,-33.66,-48.00,-44.58,-48.21
2022/02/03 01:59:07+0000,-43.04,-23.05,-33.23,-35.91,-47.33,-47.99
2022/02/03 02:00:01+0000,-42.45,-21.36,-32.79,-39.51,-44.59,-48.14
2022/02/03 02:01:03+0000,-42.63,-23.39,-34.14,-47.99,-45.98,-47.42
2022/02/03 02:01:55+0000,-41.09,-24.47,-34.77,-46.59,-44.99,-47.99
2022/02/03 02:02:47+0000,-43.52,-24.17,-34.13,-46.50,-45.24,-47.03
2022/02/03 02:03:39+0000,-43.25,-22.00,-33.11,-42.57,-46.44,-45.53
2022/02/03 02:04:31+0000,-44.27,-25.20,-33.32,-40.72,-45.31,-46.15
2022/02/03 02:05:23+0000,-43.37,-25.06,-35.31,-44.61,-45.72,-45.80
2022/02/03 02:06:16+0000,-42.87,-20.05,-33.66,-43.95,-45.15,-46.75
2022/02/03 02:07:08+0000,-42.30,-20.59,-32.24,-44.34,-46.13,-45.72
2022/02/03 02:08:00+0000,-42.96,-25.04,-32.19,-46.95,-46.27,-47.33
2022/02/03 02:08:52+0000,-41.81,-32.22,-34.13,-44.56,-45.52,-47.02
2022/02/03 02:09:47+0000,-41.73,-19.51,-34.69,-47.07,-45.39,-47.97
2022/02/03 02:10:39+0000,-41.62,-19.97,-32.37,-46.90,-46.00,-47.76
2022/02/03 02:11:40+0000,-42.94,-19.68,-32.54,-47.36,-46.85,-47.38
2022/02/03 02:12:32+0000,-42.60,-26.04,-31.68,-47.04,-45.96,-47.72
2022/02/03 02:13:24+0000,-42.27,-25.25,-31.41,-47.33,-45.40,-47.57
2022/02/03 02:14:16+0000,-40.54,-22.32,-32.83,-46.43,-45.62,-46.70
2022/02/03 02:15:08+0000,-41.15,-22.62,-32.43,-46.60,-45.91,-46.99
2022/02/03 02:16:00+0000,-41.25,-22.82,-31.06,-46.80,-45.18,-47.64
2022/02/03 02:16:52+0000,-40.37,-25.43,-28.70,-46.13,-46.06,-46.96
2022/02/03 02:17:44+0000,-42.60,-22.86,-34.89,-47.54,-45.64,-47.77
2022/02/03 02:18:36+0000,-41.75,-32.36,-31.28,-47.66,-45.97,-47.77
2022/02/03 02:19:29+0000,-42.34,-26.06,-31.67,-47.47,-45.42,-48.01
2022/02/03 02:20:23+0000,-41.93,-24.32,-34.70,-47.15,-44.73,-47.15
2022/02/03 02:21:25+0000,-42.11,-25.27,-32.75,-46.99,-46.47,-46.84
2022/02/03 02:22:17+0000,-40.82,-24.06,-32.56,-46.80,-45.16,-47.70
2022/02/03 02:23:09+0000,-42.86,-24.08,-33.46,-46.87,-46.15,-46.57
2022/02/03 02:24:01+0000,-40.89,-25.83,-32.92,-47.12,-46.38,-45.25
2022/02/03 02:24:53+0000,-42.34,-25.61,-34.80,-46.72,-45.60,-46.43
2022/02/03 02:25:45+0000,-42.68,-23.71,-34.16,-47.63,-46.38,-45.66
2022/02/03 02:26:37+0000,-39.32,-21.52,-33.13,-47.37,-46.60,-45.60
2022/02/03 02:27:29+0000,-42.46,-26.62,-32.82,-47.39,-45.20,-47.32
2022/02/03 02:28:21+0000,-41.22,-32.25,-28.07,-46.58,-45.12,-47.93
2022/02/03 02:29:13+0000,-41.38,-19.82,-28.30,-47.54,-46.09,-47.48
2022/02/03 02:30:08+0000,-38.22,-20.62,-34.34,-47.19,-45.05,-47.33
2022/02/03 02:31:11+0000,-40.59,-21.15,-34.37,-46.82,-46.05,-48.12
2022/02/03 02:32:03+0000,-39.50,-26.41,-34.56,-47.77,-46.04,-46.41
2022/02/03 02:32:55+0000,-39.97,-26.10,-34.74,-47.66,-46.23,-47.48
2022/02/03 02:33:47+0000,-41.77,-21.00,-34.05,-46.65,-45.59,-48.03
2022/02/03 02:34:39+0000,-34.24,-21.45,-32.88,-46.81,-46.39,-47.22
2022/02/03 02:35:31+0000,-41.93,-25.65,-34.05,-47.53,-45.75,-46.87
2022/02/03 02:36:23+0000,-41.20,-25.87,-27.71,-44.96,-45.52,-46.65
2022/02/03 02:37:15+0000,-41.94,-22.23,-28.20,-47.05,-44.41,-46.64
2022/02/03 02:38:07+0000,-41.59,-22.05,-33.02,-48.02,-45.75,-48.31
2022/02/03 02:38:59+0000,-42.86,-25.62,-31.98,-47.64,-46.16,-48.73
2022/02/03 02:39:54+0000,-41.65,-24.39,-34.26,-47.09,-46.19,-47.19
2022/02/03 02:40:46+0000,-28.23,-21.69,-35.08,-47.75,-46.06,-46.09
2022/02/03 02:41:48+0000,-29.69,-18.75,-34.54,-47.65,-45.41,-45.33
2022/02/03 02:42:40+0000,-40.28,-22.26,-30.28,-48.24,-44.85,-46.03
2022/02/03 02:43:32+0000,-40.41,-26.06,-30.47,-47.34,-45.25,-46.30
2022/02/03 02:44:24+0000,-41.39,-25.20,-33.98,-48.06,-44.04,-46.38
2022/02/03 02:45:16+0000,-40.66,-19.74,-33.94,-47.37,-46.05,-45.83
2022/02/03 02:46:08+0000,-40.78,-23.05,-32.00,-47.68,-46.23,-45.63
2022/02/03 02:47:00+0000,-42.51,-23.92,-33.08,-48.13,-45.29,-45.84
2022/02/03 02:47:52+0000,-29.44,-30.63,-34.24,3.81,-45.63,-47.21
2022/02/03 02:48:44+0000,-42.60,-23.08,-33.01,-48.07,-44.88,-46.59
2022/02/03 02:49:36+0000,-40.80,-25.03,-34.57,-46.83,-46.02,-46.82
2022/02/03 02:50:31+0000,-41.43,-23.63,-33.73,-47.41,-45.88,-46.86
2022/02/03 02:51:32+0000,-38.76,-25.44,-33.31,-47.45,-45.41,-46.31
2022/02/03 02:52:24+0000,-39.82,-25.87,-34.10,-47.48,-45.69,-46.53
2022/02/03 02:53:16+0000,-33.76,-18.13,-35.05,-47.83,-45.37,-47.71
2022/02/03 02:54:08+0000,-34.79,-20.90,-34.06,-46.62,-45.69,-46.45
2022/02/03 02:55:00+0000,-39.77,-23.68,-34.24,-47.26,-45.48,-46.81
2022/02/03 02:55:52+0000,-41.54,-23.35,-34.03,-47.39,-45.59,-46.43
2022/02/03 02:56:44+0000,-42.21,-20.65,-32.61,-47.71,-45.72,-46.11
2022/02/03 02:57:36+0000,-37.14,-30.10,-34.63,-46.23,-46.21,-45.93
2022/02/03 02:58:28+0000,-42.77,-25.32,-34.58,-46.43,-45.13,-47.04
2022/02/03 02:59:20+0000,-41.41,-31.68,-33.56,-47.80,-44.80,-47.21
2022/02/03 03:00:15+0000,-42.42,-21.07,-33.37,-46.24,-45.44,-45.76
2022/02/03 03:01:16+0000,-40.83,-23.01,-33.12,-46.60,-46.11,-46.15
2022/02/03 03:02:09+0000,-34.28,-22.16,-34.84,-46.84,-44.90,-45.81
2022/02/03 03:03:01+0000,-33.37,-22.24,-33.77,-45.78,-45.24,-46.23
2022/02/03 03:03:53+0000,-36.88,-26.60,-33.57,-46.78,-45.57,-46.34
2022/02/03 03:04:45+0000,-42.63,-22.74,-33.59,-46.99,-45.44,-46.36
2022/02/03 03:05:37+0000,-33.07,-27.11,-33.36,-46.86,-46.04,-47.40
2022/02/03 03:06:29+0000,-41.88,-25.28,-34.48,-47.66,-45.37,-47.14
2022/02/03 03:07:21+0000,-40.82,-32.19,-33.15,-47.15,-46.64,-47.22
2022/02/03 03:08:13+0000,-42.30,-24.01,-33.13,-47.47,-46.60,-47.79
2022/02/03 03:09:05+0000,-35.00,-31.06,-34.17,-48.27,-45.79,-46.97
2022/02/03 03:09:59+0000,-42.75,-22.65,-34.55,-46.76,-45.21,-47.83
2022/02/03 03:10:51+0000,-40.69,-30.61,-34.45,-43.77,-46.47,-46.41
2022/02/03 03:11:53+0000,-41.96,-20.90,-33.98,-47.63,-46.21,-46.79
2022/02/03 03:12:45+0000,-41.57,-20.77,-34.64,-46.45,-45.44,-46.61
2022/02/03 03:13:37+0000,-37.71,-24.18,-34.49,-45.33,-45.41,-46.89
2022/02/03 03:14:29+0000,-42.46,-24.38,-34.06,-46.03,-44.89,-47.31
2022/02/03 03:15:21+0000,-42.02,-32.35,-34.12,-47.61,-46.12,-47.49
2022/02/03 03:16:13+0000,-36.85,-22.83,-35.24,-48.09,-46.03,-47.08
2022/02/03 03:17:05+0000,-40.31,-32.14,-34.19,-47.46,-45.04,-46.80
2022/02/03 03:17:57+0000,-39.86,-21.71,-35.63,-46.15,-45.10,-47.70
2022/02/03 03:18:49+0000,-41.75,30.33,-34.32,-47.26,-45.22,-47.15
2022/02/03 03:19:44+0000,-42.88,-25.03,-35.46,-47.24,-46.65,-45.74
2022/02/03 03:20:36+0000,-35.74,-32.28,-35.17,-46.33,-46.14,-45.27
2022/02/03 03:21:37+0000,-36.58,-26.60,-34.72,-41.53,-45.62,-46.23
2022/02/03 03:22:29+0000,-43.89,-23.88,-34.92,-46.76,-45.58,-47.28
2022/02/03 03:23:21+0000,-32.85,-30.89,-34.71,-45.71,-46.18,-46.45
2022/02/03 03:24:13+0000,-31.36,-22.96,-34.43,-46.41,-45.40,-47.01
2022/02/03 03:25:05+0000,-37.53,-31.64,-32.49,-45.77,-44.70,-47.21
2022/02/03 03:25:58+0000,-38.22,-23.37,-35.12,-47.12,-46.88,-46.31
2022/02/03 03:26:50+0000,-38.11,-30.68,-34.64,-46.78,-46.20,-47.97
2022/02/03 03:27:42+0000,-38.42,-21.93,-35.18,-46.60,-47.14,-47.18
2022/02/03 03:28:34+0000,-38.51,-26.35,-34.76,-46.44,-45.68,-47.26
2022/02/03 03:29:26+0000,-37.66,-22.93,-34.43,-46.95,-45.74,-47.68
2022/02/03 03:30:20+0000,-39.74,-32.51,-34.36,-46.92,-46.18,-47.56
2022/02/03 03:31:22+0000,-39.87,-25.92,-35.50,-47.28,-46.72,-47.37
2022/02/03 03:32:14+0000,-42.35,-21.41,-34.51,-47.02,-45.10,-48.13
2022/02/03 03:33:06+0000,-34.49,-29.85,-33.33,-46.71,-45.34,-47.26
2022/02/03 03:33:58+0000,-44.02,-25.45,-33.08,-45.33,-45.33,-46.80
2022/02/03 03:34:50+0000,-38.66,-31.13,-34.67,-47.15,-46.29,-47.53
2022/02/03 03:35:42+0000,-37.96,-26.78,-35.20,-46.66,-47.43,-46.70
2022/02/03 03:36:34+0000,-36.11,-30.26,-34.49,-47.01,-46.14,-46.05
2022/02/03 03:37:26+0000,-38.10,-26.02,-35.62,-46.99,-46.18,-45.70
2022/02/03 03:38:18+0000,-41.84,-22.61,-35.20,-46.66,-46.17,-46.57
2022/02/03 03:39:11+0000,-39.07,-25.19,-34.80,-46.20,-45.91,-46.35
2022/02/03 03:40:05+0000,-39.08,-29.63,-34.77,-46.62,-44.88,-46.61
2022/02/03 03:41:06+0000,-37.94,-31.51,-35.62,-46.94,-45.51,-46.04
2022/02/03 03:41:58+0000,-42.33,-23.42,-35.08,-47.06,-46.86,-46.95
2022/02/03 03:42:50+0000,-40.51,-31.34,-33.74,-47.38,-45.99,-46.55
2022/02/03 03:43:42+0000,-41.14,-24.46,-35.35,-46.64,-45.83,-47.17
2022/02/03 03:44:35+0000,-40.18,-30.22,-35.25,-47.78,-45.50,-46.86
2022/02/03 03:45:27+0000,-40.89,-24.41,-34.18,-47.34,-45.46,-46.34
2022/02/03 03:46:19+0000,-41.09,-23.36,-35.13,-47.06,-47.34,-47.07
2022/02/03 03:47:11+0000,-34.75,-23.15,-34.74,-46.57,-45.88,-46.21
2022/02/03 03:48:03+0000,-36.76,-26.97,-35.46,-46.80,-46.41,-47.28
2022/02/03 03:48:55+0000,-36.22,-26.62,-34.57,-46.26,-45.24,-46.66
2022/02/03 03:49:49+0000,-38.55,-26.42,-35.43,-46.27,-45.12,-46.76
2022/02/03 03:50:41+0000,-41.23,-24.23,-35.02,-46.60,-46.06,-46.85
2022/02/03 03:51:43+0000,-40.57,-22.85,-34.70,-46.00,-45.79,-46.31
2022/02/03 03:52:35+0000,-41.60,-28.99,-35.17,-45.39,-46.11,-46.95
2022/02/03 03:53:27+0000,-37.79,-24.91,-34.81,-45.78,-45.81,-46.63
2022/02/03 03:54:19+0000,-36.29,-26.78,-35.13,-45.64,-45.47,-45.58
2022/02/03 03:55:11+0000,-40.92,-25.14,-34.99,-45.59,-46.01,-46.10
2022/02/03 03:56:03+0000,-39.88,-23.72,-35.05,-44.10,-45.80,-45.79
2022/02/03 03:56:55+0000,-35.79,-23.70,-35.42,-46.10,-46.77,-45.87
2022/02/03 03:57:47+0000,-34.03,-27.27,-35.81,-46.05,-46.06,-45.97
2022/02/03 03:58:39+0000,-36.54,-26.96,-35.23,-46.17,-45.29,-47.39
2022/02/03 03:59:31+0000,-40.87,-26.23,-35.14,-45.66,-45.68,-47.06
2022/02/03 04:00:26+0000,-41.12,-26.41,-35.58,-45.76,-45.65,-46.88
2022/02/03 04:01:27+0000,-40.63,-28.77,-34.49,-45.54,-46.12,-48.08
2022/02/03 04:02:19+0000,-39.30,-31.79,-34.43,-45.53,-45.91,-47.32
2022/02/03 04:03:11+0000,-41.38,-27.19,-35.39,-45.50,-44.79,-48.00
2022/02/03 04:04:03+0000,-41.28,-24.81,-36.33,-45.72,-46.51,-48.00
2022/02/03 04:04:55+0000,-37.02,-27.63,-35.37,-46.60,-46.91,-48.21
2022/02/03 04:05:47+0000,-36.06,-26.98,-35.00,-45.19,-46.89,-47.08
2022/02/03 04:06:39+0000,-36.91,-28.92,-35.14,-45.57,-46.15,-46.94
2022/02/03 04:07:32+0000,-39.80,-24.72,-35.23,-45.73,-46.95,-47.35
2022/02/03 04:08:24+0000,-40.77,-21.65,-34.45,-45.26,-45.35,-47.50
2022/02/03 04:09:16+0000,-32.41,-23.83,-34.96,-45.12,-46.60,-46.50
2022/02/03 04:10:10+0000,-38.64,-26.39,-33.85,-45.79,-46.83,-47.10
2022/02/03 04:11:11+0000,-36.17,-26.06,-35.01,-46.07,-46.38,-46.75
2022/02/03 04:12:03+0000,-37.77,-25.89,-34.33,-46.22,-47.78,-45.04
2022/02/03 04:12:55+0000,-31.42,-28.00,-35.61,-45.26,-45.64,-45.54
2022/02/03 04:13:48+0000,-33.11,-25.42,-34.83,-46.08,-46.27,-46.29
2022/02/03 04:14:40+0000,-39.00,-27.90,-35.58,-45.97,-46.80,-45.37
2022/02/03 04:15:32+0000,-39.15,-13.51,-35.06,-46.20,-46.74,-46.06
2022/02/03 04:16:24+0000,-34.61,-28.78,-34.74,-45.70,-45.46,-45.89
2022/02/03 04:17:16+0000,-40.31,-29.11,-35.39,-46.60,-45.83,-47.19
2022/02/03 04:18:08+0000,-33.56,-27.38,-34.85,-45.58,-46.10,-47.79
2022/02/03 04:19:00+0000,-42.72,-28.66,-35.56,-46.24,-45.62,-47.00
2022/02/03 04:19:54+0000,-38.04,-27.54,-35.21,-46.58,-46.39,-48.51
2022/02/03 04:20:46+0000,-36.51,-29.82,-34.38,-45.90,-46.30,-47.58
2022/02/03 04:21:48+0000,-38.75,-30.60,-35.50,-46.02,-45.80,-46.74
2022/02/03 04:22:40+0000,-31.64,-27.50,-34.93,-45.67,-44.71,-48.19
2022/02/03 04:23:32+0000,-34.41,-29.02,-34.61,-46.09,-45.06,-48.05
2022/02/03 04:24:24+0000,-40.63,-29.58,-35.24,-46.11,-46.00,-46.86
2022/02/03 04:25:16+0000,-39.02,-27.81,-35.17,-46.36,-46.49,-47.55
2022/02/03 04:26:08+0000,-37.34,-29.41,-34.76,-46.41,-45.58,-46.61
2022/02/03 04:27:00+0000,-42.80,-27.64,-35.17,-45.75,-45.85,-47.56
2022/02/03 04:27:52+0000,-36.58,-29.11,-34.97,-46.14,-47.12,-47.38
2022/02/03 04:28:44+0000,-43.51,-28.94,-34.97,-45.68,-46.11,-48.01
2022/02/03 04:29:36+0000,-40.12,-29.10,-34.76,-46.18,-46.59,-46.26
2022/02/03 04:30:30+0000,-43.34,-26.57,-34.99,-46.41,-45.65,-46.96
2022/02/03 04:31:32+0000,-38.37,-25.35,-34.99,-46.18,-45.61,-46.27
2022/02/03 04:32:24+0000,-37.16,-28.67,-35.58,-45.69,-45.73,-45.64
2022/02/03 04:33:16+0000,-40.84,-28.38,-35.80,-46.79,-46.00,-45.85
2022/02/03 04:34:08+0000,-32.48,-30.15,-35.37,-46.07,-45.60,-45.42
2022/02/03 04:35:00+0000,-41.53,-25.70,-34.45,-46.56,-45.31,-47.68
2022/02/03 04:35:52+0000,-38.54,-27.62,-34.96,-46.45,-46.50,-46.47
2022/02/03 04:36:44+0000,-42.89,-29.24,-34.63,-47.19,-46.99,-46.79
2022/02/03 04:37:36+0000,-31.74,-32.01,-35.29,-46.85,-46.30,-47.01
2022/02/03 04:38:28+0000,-38.00,-24.10,-34.35,-46.47,-47.65,-46.46
2022/02/03 04:39:20+0000,-36.18,-31.92,-35.93,-45.89,-47.50,-48.27
2022/02/03 04:40:15+0000,-42.98,-26.54,-34.65,-45.90,-47.97,-47.26
2022/02/03 04:41:16+0000,-38.02,-28.24,-34.32,-46.19,-47.90,-48.13
2022/02/03 04:42:08+0000,-32.30,-27.94,-34.70,-45.83,-46.95,-48.76